Wetterstation Vettwei-Soller: Standort 50 43' 54" Nord - 6 33' 24" Ost
Wetterdaten: aktuell Donnerstag, 30.03.2023 09:45
Datum Zeit Temp. A. Temp. A. min Temp. A. max Feuchte A. Luftdruck Regen Wind Richtung Richtung Sonnenschein Zeit Regen ET UV Solar Taupunkt Windchill Windben
30.03.2023 09:45 15,1 C 14,7 C 15,1 C 67 % 1008,0 hPa 0,0 l/m 7,3 km/h (2 Bft) SW 231 0 min 0 min 0,000 mm 0,5 UV-I 148 W/m 9,0 C 15,1 C 33,8 km/h (5 Bft)
30.03.2023 09:30 14,8 C 14,8 C 14,9 C 67 % 1008,0 hPa 0,0 l/m 9,3 km/h (2 Bft) NW 313 0 min 0 min 0,000 mm 0,0 UV-I 93 W/m 8,7 C 14,8 C 27,4 km/h (4 Bft)
30.03.2023 09:15 14,9 C 14,5 C 14,9 C 68 % 1007,8 hPa 0,0 l/m 7,7 km/h (2 Bft) S-SW 201 0 min 0 min 0,051 mm 0,0 UV-I 123 W/m 9,0 C 14,9 C 32,2 km/h (5 Bft)
30.03.2023 09:00 14,5 C 14,2 C 14,5 C 70 % 1007,9 hPa 0,0 l/m 9,9 km/h (2 Bft) S-SW 204 0 min 0 min 0,000 mm 0,0 UV-I 91 W/m 9,1 C 14,5 C 22,5 km/h (4 Bft)
30.03.2023 08:45 14,2 C 14,2 C 14,3 C 71 % 1007,8 hPa 0,0 l/m 7,9 km/h (2 Bft) SW 221 0 min 0 min 0,000 mm 0,0 UV-I 63 W/m 9,0 C 14,2 C 22,5 km/h (4 Bft)
30.03.2023 08:30 14,3 C 14,1 C 14,3 C 71 % 1007,7 hPa 0,0 l/m 7,3 km/h (2 Bft) S 184 0 min 0 min 0,000 mm 0,0 UV-I 63 W/m 9,1 C 14,3 C 19,3 km/h (3 Bft)
30.03.2023 08:15 14,1 C 14,1 C 14,2 C 72 % 1007,7 hPa 0,0 l/m 4,7 km/h (1 Bft) S-SW 209 0 min 0 min 0,000 mm 0,0 UV-I 14 W/m 9,1 C 14,1 C 12,9 km/h (3 Bft)
30.03.2023 08:00 14,2 C 14,1 C 14,2 C 71 % 1007,4 hPa 0,0 l/m 6,4 km/h (2 Bft) S-SW 203 0 min 0 min 0,025 mm 0,0 UV-I 21 W/m 9,0 C 14,2 C 19,3 km/h (3 Bft)
30.03.2023 07:45 14,2 C 14,2 C 14,4 C 70 % 1007,4 hPa 0,0 l/m 6,6 km/h (2 Bft) S-SW 204 0 min 0 min 0,000 mm 0,0 UV-I 9 W/m 8,8 C 14,2 C 19,3 km/h (3 Bft)
30.03.2023 07:30 14,4 C 14,4 C 14,7 C 69 % 1007,4 hPa 0,0 l/m 8,6 km/h (2 Bft) SW 219 0 min 0 min 0,000 mm 0,0 UV-I 5 W/m 8,8 C 14,4 C 20,9 km/h (4 Bft)
30.03.2023 07:15 14,6 C 14,6 C 14,7 C 69 % 1007,1 hPa 0,0 l/m 9,4 km/h (2 Bft) S-SW 194 0 min 0 min 0,000 mm 0,0 UV-I 0 W/m 9,0 C 14,6 C 22,5 km/h (4 Bft)
30.03.2023 07:00 14,6 C 14,6 C 14,9 C 68 % 1007,0 hPa 0,0 l/m 8,8 km/h (2 Bft) S 173 0 min 0 min 0,051 mm 0,0 UV-I 0 W/m 8,8 C 14,6 C 20,9 km/h (4 Bft)
30.03.2023 06:45 14,8 C 14,8 C 15,0 C 67 % 1007,0 hPa 0,0 l/m 10,6 km/h (2 Bft) S-SW 197 0 min 0 min 0,000 mm 0,0 UV-I 0 W/m 8,7 C 14,8 C 24,1 km/h (4 Bft)
30.03.2023 06:30 14,9 C 14,9 C 15,0 C 67 % 1007,1 hPa 0,0 l/m 10,3 km/h (2 Bft) SW 217 0 min 0 min 0,000 mm 0,0 UV-I 0 W/m 8,8 C 14,9 C 27,4 km/h (4 Bft)
30.03.2023 06:15 14,9 C 14,9 C 15,0 C 66 % 1007,0 hPa 0,0 l/m 7,6 km/h (2 Bft) SW 217 0 min 0 min 0,000 mm 0,0 UV-I 0 W/m 8,6 C 14,9 C 20,9 km/h (4 Bft)
30.03.2023 06:00 14,9 C 14,9 C 15,1 C 65 % 1007,0 hPa 0,0 l/m 7,6 km/h (2 Bft) S 186 0 min 0 min 0,051 mm 0,0 UV-I 0 W/m 8,4 C 14,9 C 17,7 km/h (3 Bft)
30.03.2023 05:45 15,0 C 14,9 C 15,1 C 64 % 1006,9 hPa 0,0 l/m 9,8 km/h (2 Bft) SW 231 0 min 0 min 0,000 mm 0,0 UV-I 0 W/m 8,2 C 15,0 C 22,5 km/h (4 Bft)
30.03.2023 05:30 15,1 C 14,8 C 15,1 C 63 % 1007,1 hPa 0,0 l/m 8,6 km/h (2 Bft) S-SW 194 0 min 0 min 0,000 mm 0,0 UV-I 0 W/m 8,1 C 15,1 C 19,3 km/h (3 Bft)
30.03.2023 05:15 14,8 C 14,7 C 14,8 C 64 % 1006,9 hPa 0,0 l/m 9,2 km/h (2 Bft) S-SW 193 0 min 0 min 0,000 mm 0,0 UV-I 0 W/m 8,1 C 14,8 C 20,9 km/h (4 Bft)
30.03.2023 05:00 14,7 C 14,7 C 14,8 C 65 % 1007,3 hPa 0,0 l/m 6,9 km/h (2 Bft) S-SW 208 0 min 0 min 0,050 mm 0,0 UV-I 0 W/m 8,2 C 14,7 C 17,7 km/h (3 Bft)
30.03.2023 04:45 14,8 C 14,8 C 15,2 C 65 % 1007,6 hPa 0,0 l/m 7,5 km/h (2 Bft) S 176 0 min 0 min 0,000 mm 0,0 UV-I 0 W/m 8,3 C 14,8 C 20,9 km/h (4 Bft)
30.03.2023 04:30 15,2 C 15,2 C 15,4 C 63 % 1007,5 hPa 0,0 l/m 10,0 km/h (2 Bft) S 171 0 min 0 min 0,000 mm 0,0 UV-I 0 W/m 8,2 C 15,2 C 25,7 km/h (4 Bft)
30.03.2023 04:15 15,4 C 15,4 C 15,7 C 62 % 1008,4 hPa 0,0 l/m 10,4 km/h (2 Bft) S-SW 200 0 min 0 min 0,000 mm 0,0 UV-I 0 W/m 8,2 C 15,4 C 29,0 km/h (5 Bft)
30.03.2023 04:00 15,6 C 15,6 C 15,7 C 62 % 1008,4 hPa 0,0 l/m 9,5 km/h (2 Bft) S-SW 212 0 min 0 min 0,077 mm 0,0 UV-I 0 W/m 8,3 C 15,6 C 24,1 km/h (4 Bft)
30.03.2023 03:45 15,7 C 15,4 C 15,7 C 61 % 1008,8 hPa 0,0 l/m 10,8 km/h (2 Bft) S-SW 210 0 min 0 min 0,000 mm 0,0 UV-I 0 W/m 8,2 C 15,7 C 22,5 km/h (4 Bft)
30.03.2023 03:30 15,4 C 15,3 C 15,4 C 62 % 1008,6 hPa 0,0 l/m 9,7 km/h (2 Bft) S-SW 208 0 min 0 min 0,000 mm 0,0 UV-I 0 W/m 8,2 C 15,4 C 20,9 km/h (4 Bft)
30.03.2023 03:15 15,4 C 15,1 C 15,4 C 62 % 1008,7 hPa 0,0 l/m 8,9 km/h (2 Bft) S-SW 207 0 min 0 min 0,000 mm 0,0 UV-I 0 W/m 8,2 C 15,4 C 24,1 km/h (4 Bft)
30.03.2023 03:00 15,1 C 15,1 C 15,3 C 62 % 1008,7 hPa 0,0 l/m 5,3 km/h (1 Bft) S-SO 153 0 min 0 min 0,050 mm 0,0 UV-I 0 W/m 7,9 C 15,1 C 17,7 km/h (3 Bft)
30.03.2023 02:45 15,2 C 15,2 C 15,4 C 62 % 1008,7 hPa 0,0 l/m 6,6 km/h (2 Bft) S-SO 162 0 min 0 min 0,000 mm 0,0 UV-I 0 W/m 8,0 C 15,2 C 16,1 km/h (3 Bft)
30.03.2023 02:30 15,3 C 14,9 C 15,3 C 61 % 1009,2 hPa 0,0 l/m 7,2 km/h (2 Bft) S 178 0 min 0 min 0,000 mm 0,0 UV-I 0 W/m 7,8 C 15,3 C 17,7 km/h (3 Bft)
30.03.2023 02:15 15,0 C 15,0 C 15,2 C 62 % 1009,1 hPa 0,0 l/m 6,9 km/h (2 Bft) S-SW 207 0 min 0 min 0,000 mm 0,0 UV-I 0 W/m 7,8 C 15,0 C 16,1 km/h (3 Bft)
30.03.2023 02:00 15,2 C 15,2 C 15,3 C 61 % 1009,3 hPa 0,0 l/m 7,1 km/h (2 Bft) S 189 0 min 0 min 0,051 mm 0,0 UV-I 0 W/m 7,7 C 15,2 C 17,7 km/h (3 Bft)
30.03.2023 01:45 15,3 C 15,3 C 15,5 C 61 % 1009,1 hPa 0,0 l/m 7,1 km/h (2 Bft) S-SW 200 0 min 0 min 0,000 mm 0,0 UV-I 0 W/m 7,8 C 15,3 C 16,1 km/h (3 Bft)
30.03.2023 01:30 15,4 C 15,3 C 15,4 C 61 % 1009,4 hPa 0,0 l/m 9,7 km/h (2 Bft) SW 221 0 min 0 min 0,000 mm 0,0 UV-I 0 W/m 7,9 C 15,4 C 25,7 km/h (4 Bft)
30.03.2023 01:15 15,4 C 15,3 C 15,4 C 62 % 1009,5 hPa 0,0 l/m 10,0 km/h (2 Bft) S-SW 205 0 min 0 min 0,000 mm 0,0 UV-I 0 W/m 8,2 C 15,4 C 32,2 km/h (5 Bft)
30.03.2023 01:00 15,4 C 15,3 C 15,4 C 62 % 1009,5 hPa 0,0 l/m 10,1 km/h (2 Bft) SW 225 0 min 0 min 0,051 mm 0,0 UV-I 0 W/m 8,2 C 15,4 C 27,4 km/h (4 Bft)
30.03.2023 00:45 15,3 C 15,2 C 15,3 C 62 % 1009,7 hPa 0,0 l/m 7,9 km/h (2 Bft) S 186 0 min 0 min 0,000 mm 0,0 UV-I 0 W/m 8,1 C 15,3 C 19,3 km/h (3 Bft)
30.03.2023 00:30 15,3 C 15,1 C 15,3 C 63 % 1009,9 hPa 0,0 l/m 7,8 km/h (2 Bft) S-SW 198 0 min 0 min 0,000 mm 0,0 UV-I 0 W/m 8,3 C 15,3 C 25,7 km/h (4 Bft)
30.03.2023 00:15 15,2 C 15,1 C 15,3 C 63 % 1010,1 hPa 0,0 l/m 8,0 km/h (2 Bft) S-SW 208 0 min 0 min 0,000 mm 0,0 UV-I 0 W/m 8,2 C 15,2 C 19,3 km/h (3 Bft)
30.03.2023 00:00 15,3 C 15,3 C 15,3 C 63 % 1010,0 hPa 0,0 l/m 8,6 km/h (2 Bft) S 175 0 min 0 min 0,000 mm 0,0 UV-I 0 W/m 8,3 C 15,3 C 17,7 km/h (3 Bft)
29.03.2023 23:45 15,3 C 15,3 C 15,4 C 63 % 1010,0 hPa 0,0 l/m 10,1 km/h (2 Bft) SW 215 0 min 0 min 0,000 mm 0,0 UV-I 0 W/m 8,3 C 15,3 C 20,9 km/h (4 Bft)
29.03.2023 23:30 15,4 C 15,3 C 15,4 C 63 % 1010,2 hPa 0,0 l/m 10,2 km/h (2 Bft) S 190 0 min 0 min 0,000 mm 0,0 UV-I 0 W/m 8,4 C 15,4 C 25,7 km/h (4 Bft)
29.03.2023 23:15 15,4 C 15,3 C 15,5 C 62 % 1010,5 hPa 0,0 l/m 9,0 km/h (2 Bft) SW 217 0 min 0 min 0,051 mm 0,0 UV-I 0 W/m 8,2 C 15,4 C 20,9 km/h (4 Bft)
29.03.2023 23:00 15,5 C 15,4 C 15,5 C 63 % 1010,5 hPa 0,0 l/m 11,5 km/h (2 Bft) S 169 0 min 0 min 0,000 mm 0,0 UV-I 0 W/m 8,5 C 15,5 C 24,1 km/h (4 Bft)
29.03.2023 22:45 15,4 C 15,2 C 15,4 C 63 % 1010,8 hPa 0,0 l/m 10,8 km/h (2 Bft) SW 224 0 min 0 min 0,000 mm 0,0 UV-I 0 W/m 8,4 C 15,4 C 24,1 km/h (4 Bft)
29.03.2023 22:30 15,2 C 14,5 C 15,2 C 64 % 1010,8 hPa 0,0 l/m 9,0 km/h (2 Bft) S-SW 211 0 min 0 min 0,000 mm 0,0 UV-I 0 W/m 8,4 C 15,2 C 20,9 km/h (4 Bft)
29.03.2023 22:15 14,5 C 14,1 C 14,5 C 69 % 1011,1 hPa 0,0 l/m 5,0 km/h (1 Bft) S-SW 212 0 min 0 min 0,025 mm 0,0 UV-I 0 W/m 8,9 C 14,5 C 14,5 km/h (3 Bft)
29.03.2023 22:00 14,1 C 12,2 C 14,1 C 72 % 1011,2 hPa 0,0 l/m 4,3 km/h (1 Bft) S-SO 158 0 min 0 min 0,000 mm 0,0 UV-I 0 W/m 9,1 C 14,1 C 14,5 km/h (3 Bft)
29.03.2023 21:45 12,3 C 12,3 C 12,9 C 80 % 1011,5 hPa 0,0 l/m 1,1 km/h (1 Bft) S-SO 153 0 min 0 min 0,000 mm 0,0 UV-I 0 W/m 8,9 C 12,3 C 8,0 km/h (2 Bft)
29.03.2023 21:30 12,9 C 12,9 C 13,6 C 78 % 1011,7 hPa 0,0 l/m 1,0 km/h (0 Bft) S-SO 153 0 min 0 min 0,000 mm 0,0 UV-I 0 W/m 9,2 C 12,9 C 6,4 km/h (2 Bft)
29.03.2023 21:15 13,6 C 13,6 C 14,4 C 76 % 1011,8 hPa 0,0 l/m 2,0 km/h (1 Bft) S-SO 163 0 min 0 min 0,000 mm 0,0 UV-I 0 W/m 9,4 C 13,6 C 11,3 km/h (2 Bft)
29.03.2023 21:00 14,4 C 14,4 C 14,7 C 74 % 1011,9 hPa 0,0 l/m 5,6 km/h (1 Bft) S 170 0 min 0 min 0,025 mm 0,0 UV-I 0 W/m 9,8 C 14,4 C 16,1 km/h (3 Bft)
29.03.2023 20:45 14,7 C 14,6 C 14,8 C 73 % 1012,2 hPa 0,0 l/m 6,8 km/h (2 Bft) SW 215 0 min 0 min 0,000 mm 0,0 UV-I 0 W/m 9,9 C 14,7 C 20,9 km/h (4 Bft)
29.03.2023 20:30 14,7 C 14,6 C 14,8 C 73 % 1012,1 hPa 0,0 l/m 7,5 km/h (2 Bft) S-SO 154 0 min 0 min 0,000 mm 0,0 UV-I 0 W/m 9,9 C 14,7 C 20,9 km/h (4 Bft)
29.03.2023 20:15 14,6 C 14,4 C 14,6 C 74 % 1012,2 hPa 0,0 l/m 3,7 km/h (1 Bft) SW 235 0 min 0 min 0,026 mm 0,0 UV-I 0 W/m 10,0 C 14,6 C 16,1 km/h (3 Bft)
29.03.2023 20:00 14,6 C 14,6 C 14,7 C 74 % 1012,3 hPa 0,0 l/m 2,8 km/h (1 Bft) S-SO 161 0 min 0 min 0,000 mm 0,0 UV-I 0 W/m 10,0 C 14,6 C 9,7 km/h (2 Bft)
29.03.2023 19:45 14,6 C 14,6 C 15,0 C 75 % 1012,2 hPa 0,0 l/m 1,3 km/h (1 Bft) S 175 0 min 0 min 0,000 mm 0,0 UV-I 7 W/m 10,2 C 14,6 C 8,0 km/h (2 Bft)
29.03.2023 19:30 15,0 C 15,0 C 15,4 C 75 % 1012,4 hPa 0,0 l/m 1,5 km/h (1 Bft) S 191 0 min 0 min 0,000 mm 0,0 UV-I 14 W/m 10,6 C 15,0 C 9,7 km/h (2 Bft)
29.03.2023 19:15 15,4 C 15,4 C 15,7 C 74 % 1012,5 hPa 0,0 l/m 0,6 km/h (0 Bft) S-SW 207 0 min 0 min 0,000 mm 0,0 UV-I 25 W/m 10,8 C 15,4 C 4,8 km/h (1 Bft)
29.03.2023 19:00 15,7 C 15,7 C 15,9 C 73 % 1012,6 hPa 0,0 l/m 3,2 km/h (1 Bft) S-SW 207 0 min 0 min 0,051 mm 0,0 UV-I 30 W/m 10,9 C 15,7 C 8,0 km/h (2 Bft)
29.03.2023 18:45 15,9 C 15,9 C 16,2 C 73 % 1012,6 hPa 0,0 l/m 6,0 km/h (2 Bft) S 177 0 min 0 min 0,000 mm 0,0 UV-I 46 W/m 11,1 C 15,9 C 14,5 km/h (3 Bft)
29.03.2023 18:30 16,2 C 16,2 C 16,3 C 72 % 1012,7 hPa 0,0 l/m 5,7 km/h (1 Bft) S-SW 199 0 min 0 min 0,000 mm 0,0 UV-I 70 W/m 11,1 C 16,2 C 17,7 km/h (3 Bft)
29.03.2023 18:15 16,3 C 16,3 C 16,6 C 72 % 1012,7 hPa 0,0 l/m 7,7 km/h (2 Bft) S-SW 199 0 min 0 min 0,000 mm 0,0 UV-I 65 W/m 11,2 C 16,3 C 19,3 km/h (3 Bft)
29.03.2023 18:00 16,6 C 16,4 C 16,6 C 71 % 1013,0 hPa 0,0 l/m 8,2 km/h (2 Bft) SW 233 0 min 0 min 0,101 mm 0,0 UV-I 127 W/m 11,3 C 16,6 C 17,7 km/h (3 Bft)
29.03.2023 17:45 16,4 C 16,2 C 16,4 C 71 % 1013,3 hPa 0,0 l/m 7,2 km/h (2 Bft) SW 225 15 min 0 min 0,000 mm 0,5 UV-I 229 W/m 11,1 C 16,4 C 16,1 km/h (3 Bft)
29.03.2023 17:30 16,2 C 16,0 C 16,2 C 71 % 1013,7 hPa 0,0 l/m 6,2 km/h (2 Bft) S-SO 157 0 min 0 min 0,000 mm 0,5 UV-I 139 W/m 10,9 C 16,2 C 12,9 km/h (3 Bft)
29.03.2023 17:15 16,1 C 16,0 C 16,3 C 71 % 1014,0 hPa 0,0 l/m 6,2 km/h (2 Bft) S-SW 212 0 min 0 min 0,102 mm 0,0 UV-I 56 W/m 10,8 C 16,1 C 20,9 km/h (4 Bft)
29.03.2023 17:00 16,3 C 16,3 C 16,7 C 69 % 1014,2 hPa 0,0 l/m 6,9 km/h (2 Bft) S-SW 213 0 min 0 min 0,000 mm 0,0 UV-I 83 W/m 10,6 C 16,3 C 20,9 km/h (4 Bft)
29.03.2023 16:45 16,7 C 16,6 C 16,7 C 65 % 1014,2 hPa 0,0 l/m 3,5 km/h (1 Bft) S-SW 210 0 min 0 min 0,000 mm 0,0 UV-I 79 W/m 10,1 C 16,7 C 12,9 km/h (3 Bft)
29.03.2023 16:30 16,6 C 16,6 C 16,9 C 63 % 1014,4 hPa 0,0 l/m 5,2 km/h (1 Bft) S-SW 201 0 min 0 min 0,000 mm 0,0 UV-I 79 W/m 9,5 C 16,6 C 14,5 km/h (3 Bft)
29.03.2023 16:15 16,8 C 16,4 C 16,8 C 63 % 1014,4 hPa 0,0 l/m 4,8 km/h (1 Bft) S-SW 209 0 min 0 min 0,000 mm 1,1 UV-I 223 W/m 9,7 C 16,8 C 11,3 km/h (2 Bft)
29.03.2023 16:00 16,4 C 16,2 C 16,4 C 63 % 1014,7 hPa 0,0 l/m 7,7 km/h (2 Bft) S-SW 202 0 min 0 min 0,178 mm 1,2 UV-I 262 W/m 9,3 C 16,4 C 19,3 km/h (3 Bft)
29.03.2023 15:45 16,2 C 16,2 C 16,3 C 63 % 1014,9 hPa 0,0 l/m 6,6 km/h (2 Bft) S 173 0 min 0 min 0,000 mm 1,1 UV-I 195 W/m 9,1 C 16,2 C 14,5 km/h (3 Bft)
29.03.2023 15:30 16,2 C 15,9 C 16,2 C 65 % 1015,0 hPa 0,0 l/m 6,0 km/h (2 Bft) SW 221 0 min 0 min 0,000 mm 1,2 UV-I 234 W/m 9,6 C 16,2 C 17,7 km/h (3 Bft)
29.03.2023 15:15 16,1 C 15,9 C 16,1 C 63 % 1015,3 hPa 0,0 l/m 8,9 km/h (2 Bft) S-SW 192 0 min 0 min 0,000 mm 1,3 UV-I 218 W/m 9,1 C 16,1 C 22,5 km/h (4 Bft)
29.03.2023 15:00 15,9 C 15,8 C 16,1 C 64 % 1015,5 hPa 0,0 l/m 8,6 km/h (2 Bft) S-SW 196 15 min 0 min 0,279 mm 2,3 UV-I 468 W/m 9,1 C 15,9 C 20,9 km/h (4 Bft)
29.03.2023 14:45 15,8 C 15,1 C 15,8 C 65 % 1015,7 hPa 0,0 l/m 9,4 km/h (2 Bft) S-SW 213 15 min 0 min 0,000 mm 2,7 UV-I 577 W/m 9,2 C 15,8 C 22,5 km/h (4 Bft)
29.03.2023 14:30 15,2 C 14,5 C 15,2 C 67 % 1015,8 hPa 0,0 l/m 6,8 km/h (2 Bft) S-SW 206 15 min 0 min 0,000 mm 2,7 UV-I 503 W/m 9,1 C 15,2 C 19,3 km/h (3 Bft)
29.03.2023 14:15 14,5 C 14,5 C 14,9 C 67 % 1016,1 hPa 0,0 l/m 8,9 km/h (2 Bft) S-SW 213 0 min 0 min 0,000 mm 2,2 UV-I 322 W/m 8,4 C 14,5 C 19,3 km/h (3 Bft)
29.03.2023 14:00 14,9 C 14,1 C 14,9 C 68 % 1016,2 hPa 0,0 l/m 6,7 km/h (2 Bft) SO 125 15 min 0 min 0,254 mm 3,0 UV-I 663 W/m 9,0 C 14,9 C 17,7 km/h (3 Bft)
29.03.2023 13:45 14,1 C 13,6 C 14,1 C 69 % 1016,4 hPa 0,0 l/m 6,1 km/h (2 Bft) S 173 0 min 0 min 0,000 mm 2,2 UV-I 334 W/m 8,5 C 14,1 C 17,7 km/h (3 Bft)
29.03.2023 13:30 13,6 C 13,2 C 13,7 C 69 % 1016,4 hPa 0,0 l/m 8,8 km/h (2 Bft) SW 219 0 min 0 min 0,000 mm 2,2 UV-I 341 W/m 8,0 C 13,6 C 19,3 km/h (3 Bft)
29.03.2023 13:15 13,3 C 13,0 C 13,3 C 69 % 1016,5 hPa 0,0 l/m 6,1 km/h (2 Bft) S-SW 197 15 min 0 min 0,000 mm 2,1 UV-I 381 W/m 7,7 C 13,3 C 19,3 km/h (3 Bft)
29.03.2023 13:00 13,2 C 12,9 C 13,2 C 70 % 1016,5 hPa 0,0 l/m 7,4 km/h (2 Bft) SW 224 0 min 0 min 0,178 mm 1,7 UV-I 301 W/m 7,9 C 13,2 C 20,9 km/h (4 Bft)
29.03.2023 12:45 13,0 C 13,0 C 13,2 C 68 % 1016,7 hPa 0,0 l/m 7,1 km/h (2 Bft) S-SW 209 0 min 0 min 0,000 mm 1,4 UV-I 234 W/m 7,2 C 13,0 C 19,3 km/h (3 Bft)
29.03.2023 12:30 13,2 C 12,9 C 13,2 C 69 % 1016,7 hPa 0,0 l/m 6,3 km/h (2 Bft) S-SW 200 0 min 0 min 0,000 mm 1,5 UV-I 290 W/m 7,6 C 13,2 C 19,3 km/h (3 Bft)
29.03.2023 12:15 12,9 C 12,7 C 12,9 C 70 % 1016,8 hPa 0,0 l/m 7,1 km/h (2 Bft) S-SW 202 0 min 0 min 0,000 mm 1,4 UV-I 276 W/m 7,6 C 12,9 C 19,3 km/h (3 Bft)
29.03.2023 12:00 12,7 C 12,3 C 12,7 C 71 % 1016,8 hPa 0,0 l/m 4,7 km/h (1 Bft) S-SW 198 0 min 0 min 0,127 mm 1,3 UV-I 246 W/m 7,6 C 12,7 C 12,9 km/h (3 Bft)
29.03.2023 11:45 12,3 C 12,1 C 12,3 C 71 % 1016,8 hPa 0,0 l/m 6,9 km/h (2 Bft) S-SW 197 0 min 0 min 0,000 mm 1,1 UV-I 218 W/m 7,2 C 12,3 C 22,5 km/h (4 Bft)
29.03.2023 11:30 12,2 C 11,7 C 12,2 C 72 % 1017,0 hPa 0,0 l/m 4,2 km/h (1 Bft) S-SW 200 0 min 0 min 0,000 mm 1,0 UV-I 204 W/m 7,3 C 12,2 C 11,3 km/h (2 Bft)
29.03.2023 11:15 11,7 C 11,2 C 11,7 C 73 % 1017,1 hPa 0,0 l/m 4,2 km/h (1 Bft) SW 220 0 min 0 min 0,000 mm 1,1 UV-I 234 W/m 7,0 C 11,7 C 11,3 km/h (2 Bft)
29.03.2023 11:00 11,2 C 10,9 C 11,2 C 73 % 1017,0 hPa 0,0 l/m 5,1 km/h (1 Bft) SW 235 0 min 0 min 0,076 mm 0,9 UV-I 202 W/m 6,5 C 11,2 C 14,5 km/h (3 Bft)
29.03.2023 10:45 10,9 C 10,6 C 10,9 C 73 % 1017,1 hPa 0,0 l/m 4,5 km/h (1 Bft) S-SO 155 0 min 0 min 0,000 mm 0,7 UV-I 172 W/m 6,3 C 10,9 C 12,9 km/h (3 Bft)
29.03.2023 10:30 10,6 C 10,3 C 10,6 C 73 % 1017,1 hPa 0,0 l/m 3,7 km/h (1 Bft) S-SW 202 0 min 0 min 0,000 mm 0,6 UV-I 162 W/m 6,0 C 10,6 C 14,5 km/h (3 Bft)
29.03.2023 10:15 10,3 C 10,2 C 10,3 C 73 % 1017,2 hPa 0,0 l/m 5,6 km/h (1 Bft) S-SW 206 0 min 0 min 0,000 mm 0,0 UV-I 113 W/m 5,7 C 10,3 C 16,1 km/h (3 Bft)
29.03.2023 10:00 10,2 C 10,0 C 10,2 C 74 % 1017,1 hPa 0,0 l/m 5,3 km/h (1 Bft) S-SW 195 0 min 0 min 0,076 mm 0,0 UV-I 113 W/m 5,8 C 10,2 C 11,3 km/h (2 Bft)
_ Min-Zeit 10:00 10:00 10:00 01:30 05:15 - 19:15 - - - - - - - 10:15 10:00 19:15
Minimum _ 10,2 C 10,0 C 10,2 C 61 % 1006,9 hPa - 0,6 km/h (0 Bft) - - - - - - - 5,7 C 10,2 C 4,8 km/h (1 Bft)
_ Max-Zeit 16:30 16:30 16:30 21:45 10:15 10:00 23:00 - - 13:15 10:00 15:00 14:00 14:00 18:00 16:15 09:45
Maximum _ 16,9 C 16,6 C 16,9 C 80 % 1017,2 hPa 0,0 l/m 11,5 km/h
S (2 Bft)
- - 15 min 0 min 0,279 mm 3,0 UV-I 663 W/m 11,3 C 16,8 C 33,8 km/h
S-SO (5 Bft)
Durchschnitt _ 14,4 C 14,2 C 14,5 C 68 % 1012,0 hPa #0,0 l/m 6,9 km/h (2 Bft) S-SW - #0 min. #0 min. #0,457 mm 0,5 UV-I 63 W/m 8,5 C 14,4 C 18,2 km/h (3 Bft)